User: anonymous   Login
Location: Starry Hill Observatory
(46.8582°N, 122.3590°W)
Time: 18:47:22
(UTC-07:00)
Language:

Cosmos 1300 Rocket - Orbit

View from above orbital plane
View from above orbital plane
View from above satellite
View from above satellite

Ground track
Ground track

The orbit data is extracted from the following two-line orbital elements,

1 12786U 81082B   15086.15062810  .00000722  00000-0  82780-4 0  9996
2 12786 082.4917 013.8679 0019109 060.7160 299.5962 14.84404585814188
Epoch (UTC): 27 March 2015 03:36:54
Eccentricity: 0.0019109
inclination: 82.4917°
perigee height: 602 km
apogee height: 629 km
right ascension of ascending node: 13.8679°
argument of perigee: 60.7160°
revolutions per day: 14.84404585
mean anomaly at epoch: 299.5962°
orbit number at epoch: 81418

The dashed part of the orbit path shows where the satellite is in the earth's shadow,  

DLR